Volver al catálogo

SATCOM C1

ActivoComunicacionesGEO
NORAD 20945·PAYLOAD·🇺🇸 United States

Lanzado Nov 20, 1990 desde Guiana Space Centre

Loading…

TLE

ActualizadoSource: Space-Track

Época: Sep 14, 2026, 05:00 UTC

1 20945U 90100A   26257.20851734 -.00000242  00000-0  00000-0 0  9991
2 20945  13.5334  14.7066 0012488  22.2636 339.6810  0.99185808127872

Sigue SATCOM C1 en tiempo real con AllMySat

Download on the App Store